CW1509 Weather Reports


Display with metric or nautical units.
time (UTC)temp
F
wind
direction
speed
MPH
gust
MPH
rain 1hr
in
rain 24hr
in
rain mn
in
humidity
%
barometer
mb
20260507014928 51 360 1.0 3.0 0.00 0.00 0.00 48 1013.5
20260507014428 51 360 0.0 2.0 0.00 0.00 0.00 48 1013.6
20260507013931 52 360 0.0 2.0 0.00 0.00 0.00 49 1013.5
20260507013423 52 360 0.0 4.0 0.00 0.00 0.00 47 1013.5
20260507012922 52 360 2.0 4.0 0.00 0.00 0.00 47 1013.4
20260507012443 52 360 1.0 4.0 0.00 0.00 0.00 45 1013.4
20260507011915 52 360 0.0 2.0 0.00 0.00 0.00 47 1013.5
20260507011414 53 360 0.0 2.0 0.00 0.00 0.00 45 1013.3
20260507010913 53 360 0.0 6.0 0.00 0.00 0.00 46 1013.2
20260507010415 53 360 1.0 6.0 0.00 0.00 0.00 45 1013.2
20260507005914 53 360 2.0 4.0 0.00 0.00 0.00 44 1013.2
20260507005435 53 360 1.0 4.0 0.00 0.00 0.00 45 1013.2
20260507004915 53 360 2.0 4.0 0.00 0.00 0.00 44 1013.1
20260507004415 53 360 2.0 4.0 0.00 0.00 0.00 44 1013.1
20260507003917 53 360 1.0 5.0 0.00 0.00 0.00 45 1013.1
20260507003418 53 360 0.0 5.0 0.00 0.00 0.00 45 1013.0
20260507002918 53 360 2.0 5.0 0.00 0.00 0.00 45 1013.0
20260507002417 54 360 0.0 3.0 0.00 0.00 0.00 45 1013.0
20260507001919 54 360 1.0 3.0 0.00 0.00 0.00 43 1013.0
20260507001438 54 360 1.0 3.0 0.00 0.00 0.00 43 1012.8
20260507000919 54 360 1.0 4.0 0.00 0.00 0.00 44 1012.9
20260507000438 54 360 0.0 5.0 0.00 0.00 0.00 44 1012.9
20260506235918 54 360 2.0 5.0 0.00 0.00 0.00 42 1012.9
20260506235418 54 360 0.0 3.0 0.00 0.00 0.00 43 1013.0
20260506234437 54 360 2.0 5.0 0.00 0.00 0.00 41 1012.9
20260506234000 54 360 2.0 5.0 0.00 0.00 0.00 41 1012.9
20260506233454 55 360 1.0 5.0 0.00 0.00 0.00 43 1012.9
20260506232954 55 360 1.0 5.0 0.00 0.00 0.00 43 1012.9
20260506232433 55 360 0.0 4.0 0.00 0.00 0.00 41 1012.8
20260506231932 55 360 1.0 3.0 0.00 0.00 0.00 42 1012.9
20260506231454 55 360 1.0 3.0 0.00 0.00 0.00 42 1012.8
20260506230952 55 360 0.0 3.0 0.00 0.00 0.00 40 1012.8
20260506230431 55 360 1.0 4.0 0.00 0.00 0.00 40 1012.9
20260506225932 56 360 2.0 4.0 0.00 0.00 0.00 39 1012.8
20260506225432 56 360 0.0 6.0 0.00 0.00 0.00 40 1012.8
20260506224933 56 360 3.0 6.0 0.00 0.00 0.00 39 1012.8
20260506224432 56 360 1.0 3.0 0.00 0.00 0.00 40 1012.9
20260506223952 56 360 1.0 4.0 0.00 0.00 0.00 39 1013.0
20260506223431 56 360 1.0 6.0 0.00 0.00 0.00 39 1013.0
20260506222932 56 360 2.0 6.0 0.00 0.00 0.00 39 1012.9
20260506222432 57 360 3.0 6.0 0.00 0.00 0.00 38 1012.8
20260506221951 57 360 3.0 5.0 0.00 0.00 0.00 39 1012.8
20260506221431 57 360 2.0 8.0 0.00 0.00 0.00 39 1012.9
20260506220933 57 360 3.0 8.0 0.00 0.00 0.00 37 1012.8
20260506220452 56 360 1.0 4.0 0.00 0.00 0.00 40 1012.8
20260506215931 56 360 2.0 4.0 0.00 0.00 0.00 39 1012.8
20260506215432 56 360 1.0 4.0 0.00 0.00 0.00 39 1012.8
20260506214932 56 360 1.0 4.0 0.00 0.00 0.00 40 1012.7
20260506214432 56 360 2.0 5.0 0.00 0.00 0.00 38 1012.8
20260506213954 56 360 2.0 5.0 0.00 0.00 0.00 38 1012.8
20260506213433 56 360 2.0 5.0 0.00 0.00 0.00 37 1012.8
20260506212933 56 360 2.0 4.0 0.00 0.00 0.00 38 1012.8
20260506212454 56 360 2.0 5.0 0.00 0.00 0.00 37 1012.8
20260506211934 56 360 1.0 5.0 0.00 0.00 0.00 38 1012.9
20260506211416 56 360 1.0 4.0 0.00 0.00 0.00 37 1012.8
20260506210937 56 360 1.0 5.0 0.00 0.00 0.00 38 1012.8
20260506210416 56 360 2.0 5.0 0.00 0.00 0.00 36 1012.9
20260506205916 57 360 1.0 6.0 0.00 0.00 0.00 36 1012.9
20260506205417 57 360 2.0 6.0 0.00 0.00 0.00 37 1012.9
20260506204930 57 360 1.0 6.0 0.00 0.00 0.00 36 1012.9
20260506204416 57 360 2.0 6.0 0.00 0.00 0.00 35 1013.0
20260506203936 57 360 1.0 8.0 0.00 0.00 0.00 35 1012.9
20260506203416 58 360 3.0 8.0 0.00 0.00 0.00 34 1013.1
20260506202936 58 360 3.0 6.0 0.00 0.00 0.00 36 1013.1
20260506202414 58 360 1.0 6.0 0.00 0.00 0.00 36 1013.1
20260506201914 57 360 2.0 5.0 0.00 0.00 0.00 36 1013.2
20260506201434 57 360 2.0 7.0 0.00 0.00 0.00 35 1013.2
20260506200951 57 318 1.0 7.0 0.00 0.00 0.00 35 1013.3
20260506200451 58 249 3.0 6.0 0.00 0.00 0.00 34 1013.3
20260506195930 58 284 2.0 8.0 0.00 0.00 0.00 36 1013.3
20260506195430 57 344 3.0 8.0 0.00 0.00 0.00 37 1013.2
20260506194930 57 360 3.0 8.0 0.00 0.00 0.00 36 1013.5
20260506194430 57 360 2.0 6.0 0.00 0.00 0.00 35 1013.4
20260506193931 57 360 3.0 6.0 0.00 0.00 0.00 35 1013.5
20260506193432 56 360 3.0 6.0 0.00 0.00 0.00 34 1013.5
20260506192932 56 360 2.0 10.0 0.00 0.00 0.00 39 1013.8
20260506192414 56 360 3.0 10.0 0.00 0.00 0.00 36 1013.7
20260506191935 56 360 3.0 10.0 0.00 0.00 0.00 34 1013.7
20260506191433 57 360 5.0 14.0 0.00 0.00 0.00 33 1013.8
20260506190915 57 360 3.0 11.0 0.00 0.00 0.00 34 1013.7
20260506190415 57 360 3.0 11.0 0.00 0.00 0.00 35 1013.7
20260506185916 57 360 3.0 11.0 0.00 0.00 0.00 34 1013.6
20260506185426 57 360 4.0 8.0 0.00 0.00 0.00 32 1013.8
20260506184923 57 360 2.0 8.0 0.00 0.00 0.00 34 1013.7
20260506184423 57 360 2.0 8.0 0.00 0.00 0.00 32 1013.9
20260506183941 57 360 2.0 5.0 0.00 0.00 0.00 31 1013.8
20260506183421 57 360 1.0 5.0 0.00 0.00 0.00 33 1013.8
20260506182921 57 360 2.0 8.0 0.00 0.00 0.00 35 1014.0
20260506182421 57 360 3.0 8.0 0.00 0.00 0.00 36 1013.8
20260506181941 57 360 2.0 8.0 0.00 0.00 0.00 37 1013.9
20260506181422 56 360 3.0 9.0 0.00 0.00 0.00 35 1013.8
20260506180923 56 360 2.0 9.0 0.00 0.00 0.00 36 1013.9
20260506180424 56 360 5.0 9.0 0.00 0.00 0.00 38 1013.8
20260506175943 56 360 3.0 6.0 0.00 0.00 0.00 36 1013.9
20260506175423 56 360 3.0 5.0 0.00 0.00 0.00 36 1013.9
20260506174923 56 360 2.0 8.0 0.00 0.00 0.00 35 1013.9
20260506174424 57 360 3.0 8.0 0.00 0.00 0.00 34 1013.9
20260506173922 57 315 3.0 6.0 0.00 0.00 0.00 37 1013.6
20260506173415 57 229 2.0 6.0 0.00 0.00 0.00 40 1013.7
20260506172914 57 319 2.0 6.0 0.00 0.00 0.00 38 1013.5
20260506172435 56 355 2.0 5.0 0.00 0.00 0.00 37 1013.5
20260506171933 56 360 2.0 5.0 0.00 0.00 0.00 38 1013.6
20260506171432 56 261 2.0 5.0 0.00 0.00 0.00 38 1013.6
20260506170914 56 360 1.0 3.0 0.00 0.00 0.00 37 1013.6
20260506170433 55 360 1.0 4.0 0.00 0.00 0.00 43 1013.7
20260506165932 55 360 1.0 4.0 0.00 0.00 0.00 40 1013.5
20260506165433 55 360 1.0 6.0 0.00 0.00 0.00 40 1013.6
20260506165022 55 360 3.0 9.0 0.00 0.00 0.00 39 1013.5
20260506164432 55 360 3.0 6.0 0.00 0.00 0.00 38 1013.5
20260506163953 55 360 1.0 5.0 0.00 0.00 0.00 38 1013.6
20260506163429 55 360 1.0 5.0 0.00 0.00 0.00 40 1013.5
20260506162927 55 360 2.0 5.0 0.00 0.00 0.00 39 1013.6
20260506162428 55 360 2.0 5.0 0.00 0.00 0.00 40 1013.7
20260506161927 54 360 1.0 3.0 0.00 0.00 0.00 42 1013.8
20260506161427 54 360 1.0 5.0 0.00 0.00 0.00 42 1013.7
20260506160947 53 360 1.0 6.0 0.00 0.00 0.00 41 1013.8
20260506160426 53 360 3.0 6.0 0.00 0.00 0.00 41 1013.8
20260506155925 53 360 2.0 6.0 0.00 0.00 0.00 40 1013.8
20260506155447 53 360 2.0 6.0 0.00 0.00 0.00 42 1013.9
20260506154925 53 360 1.0 5.0 0.00 0.00 0.00 40 1013.9
20260506154426 53 360 2.0 5.0 0.00 0.00 0.00 40 1013.9
20260506153928 53 360 2.0 5.0 0.00 0.00 0.00 39 1013.9
20260506153426 52 360 1.0 5.0 0.00 0.00 0.00 39 1013.9
20260506152926 52 360 0.0 0.0 0.00 0.00 0.00 43 1013.8
20260506152420 52 360 0.0 2.0 0.00 0.00 0.00 44 1013.8
20260506151919 52 360 0.0 3.0 0.00 0.00 0.00 43 1013.8
20260506151418 51 360 2.0 3.0 0.00 0.00 0.00 43 1013.8
20260506150920 51 360 0.0 5.0 0.00 0.00 0.00 42 1013.9
20260506150439 51 360 2.0 5.0 0.00 0.02 0.00 42 1013.7
20260506145918 51 360 0.0 2.0 0.00 0.02 0.00 42 1013.8
20260506145418 51 360 1.0 3.0 0.00 0.02 0.00 43 1013.7
20260506144917 51 360 0.0 4.0 0.00 0.02 0.00 44 1013.7
20260506144419 51 360 1.0 4.0 0.00 0.02 0.00 43 1013.7
20260506143918 51 360 1.0 3.0 0.00 0.02 0.00 43 1013.7
20260506143418 50 360 1.0 3.0 0.00 0.02 0.00 43 1013.7
20260506142919 50 360 1.0 3.0 0.00 0.02 0.00 44 1013.7
20260506142419 50 360 1.0 6.0 0.00 0.02 0.00 45 1013.6
20260506141918 50 360 3.0 6.0 0.00 0.02 0.00 43 1013.4
20260506141417 50 360 2.0 4.0 0.00 0.02 0.00 45 1013.4
20260506140918 50 360 0.0 3.0 0.00 0.02 0.00 48 1013.3
20260506140417 50 360 0.0 3.0 0.00 0.03 0.00 49 1013.3
20260506135932 50 360 0.0 2.0 0.00 0.03 0.00 48 1013.3
20260506135452 49 360 0.0 4.0 0.00 0.03 0.00 48 1013.3
20260506134932 49 360 0.0 4.0 0.00 0.03 0.00 48 1013.2
20260506134433 49 360 1.0 4.0 0.00 0.03 0.00 47 1013.2
20260506133934 49 360 1.0 4.0 0.00 0.03 0.00 49 1013.0
20260506133454 49 360 1.0 4.0 0.00 0.03 0.00 50 1012.8
20260506132933 49 360 1.0 3.0 0.00 0.03 0.00 52 1012.7
20260506132453 49 360 0.0 3.0 0.00 0.03 0.00 53 1012.6
20260506131933 49 360 1.0 3.0 0.00 0.03 0.00 53 1012.7
20260506131432 49 360 0.0 3.0 0.00 0.03 0.00 55 1012.7
20260506130933 48 360 0.0 3.0 0.00 0.03 0.00 56 1012.6
20260506130432 48 360 1.0 3.0 0.00 0.03 0.00 57 1012.4
20260506125932 47 360 1.0 3.0 0.00 0.03 0.00 59 1012.4
20260506125431 46 360 2.0 3.0 0.00 0.03 0.00 61 1012.5
20260506124930 46 360 1.0 3.0 0.00 0.03 0.00 63 1012.5
20260506124431 45 360 1.0 3.0 0.00 0.03 0.00 65 1012.4
20260506123933 45 360 0.0 4.0 0.00 0.03 0.00 64 1012.4
20260506123432 45 360 1.0 4.0 0.00 0.03 0.00 65 1012.6
20260506122932 44 360 2.0 4.0 0.00 0.03 0.00 66 1012.5
20260506122432 44 360 1.0 4.0 0.00 0.03 0.00 69 1012.5
20260506121933 43 360 1.0 3.0 0.00 0.03 0.00 71 1012.5
20260506121414 42 360 0.0 3.0 0.00 0.03 0.00 74 1012.5
20260506120934 42 360 1.0 3.0 0.00 0.03 0.00 76 1012.4
20260506120415 41 360 1.0 3.0 0.00 0.03 0.00 78 1012.4
20260506115915 41 360 0.0 0.0 0.00 0.03 0.00 79 1012.3
20260506115416 40 360 0.0 0.0 0.00 0.03 0.00 80 1012.3
20260506114916 40 360 0.0 0.0 0.00 0.03 0.00 81 1012.2
20260506114417 39 360 0.0 0.0 0.00 0.03 0.00 81 1012.0
20260506113917 39 360 0.0 0.0 0.00 0.03 0.00 81 1011.9
20260506113416 39 360 0.0 0.0 0.00 0.03 0.00 81 1012.1
20260506112916 38 360 0.0 0.0 0.00 0.03 0.00 79 1011.9
20260506112436 39 360 0.0 0.0 0.00 0.03 0.00 78 1011.8
20260506111934 39 360 0.0 0.0 0.00 0.03 0.00 79 1011.7
20260506111434 39 360 0.0 0.0 0.00 0.03 0.00 78 1011.6
20260506110915 39 360 0.0 0.0 0.00 0.03 0.00 79 1011.3
20260506110414 39 360 0.0 0.0 0.00 0.03 0.00 78 1011.2
20260506105915 39 360 0.0 0.0 0.00 0.03 0.00 78 1011.1
20260506105436 39 360 0.0 0.0 0.00 0.03 0.00 77 1011.0
20260506104956 40 360 0.0 0.0 0.00 0.03 0.00 78 1011.1
20260506104456 40 360 0.0 0.0 0.00 0.03 0.00 77 1010.9
20260506103934 40 360 0.0 0.0 0.00 0.03 0.00 77 1011.0
20260506103432 40 360 0.0 0.0 0.00 0.03 0.00 76 1011.0
20260506102933 41 360 0.0 0.0 0.00 0.03 0.00 75 1011.1
20260506102433 41 360 0.0 0.0 0.00 0.03 0.00 74 1011.2
20260506101914 41 360 0.0 0.0 0.00 0.03 0.00 74 1011.1
20260506101415 41 360 0.0 0.0 0.00 0.03 0.00 74 1010.9
20260506100917 41 360 0.0 0.0 0.00 0.03 0.00 73 1010.9
20260506100418 41 360 0.0 0.0 0.00 0.03 0.00 73 1010.9
20260506095920 42 360 0.0 0.0 0.00 0.03 0.00 72 1010.8
20260506095423 42 360 0.0 0.0 0.00 0.03 0.00 72 1010.9
20260506094923 42 360 0.0 0.0 0.00 0.03 0.00 72 1011.0
20260506094424 42 360 0.0 0.0 0.00 0.03 0.00 72 1010.8
20260506093922 42 360 0.0 0.0 0.00 0.03 0.00 71 1010.7
20260506093423 42 360 0.0 0.0 0.00 0.03 0.00 70 1010.6
20260506092925 42 360 0.0 0.0 0.00 0.03 0.00 70 1010.8
20260506092426 43 360 0.0 0.0 0.00 0.03 0.00 70 1010.8
20260506091924 43 360 0.0 0.0 0.00 0.03 0.00 69 1010.8
20260506091426 43 360 0.0 0.0 0.00 0.03 0.00 69 1010.9
20260506090928 43 360 0.0 0.0 0.00 0.03 0.00 68 1010.9
20260506090430 43 360 0.0 0.0 0.00 0.03 0.00 68 1010.6
20260506085952 44 360 0.0 0.0 0.00 0.03 0.00 67 1010.6
20260506085434 44 360 0.0 0.0 0.00 0.03 0.00 67 1010.8
20260506084916 44 360 0.0 0.0 0.00 0.03 0.00 67 1010.8
20260506084436 44 360 0.0 0.0 0.00 0.03 0.00 67 1010.8
20260506083951 44 360 0.0 0.0 0.00 0.03 0.00 67 1010.6
20260506083431 44 360 0.0 0.0 0.00 0.03 0.00 66 1010.6
20260506082931 45 360 0.0 0.0 0.00 0.03 0.00 66 1010.4
20260506082431 45 360 0.0 0.0 0.00 0.03 0.00 65 1010.4
20260506081950 45 360 0.0 0.0 0.00 0.03 0.00 65 1010.1
20260506081428 45 360 0.0 0.0 0.00 0.03 0.00 65 1010.1
20260506080927 45 360 0.0 0.0 0.00 0.03 0.00 65 1009.9
20260506080426 45 360 0.0 0.0 0.00 0.03 0.00 65 1009.9
20260506073425 46 360 0.0 3.0 0.00 0.03 0.00 65 1009.7
20260506072924 46 360 1.0 3.0 0.00 0.03 0.00 65 1009.9
20260506072424 47 360 1.0 4.0 0.00 0.03 0.00 65 1009.9
20260506071918 47 360 1.0 4.0 0.00 0.03 0.00 66 1009.9
20260506071418 47 360 1.0 4.0 0.00 0.03 0.00 66 1009.9
20260506070920 47 360 1.0 3.0 0.00 0.03 0.00 69 1009.8
20260506070420 47 360 1.0 2.0 0.00 0.03 0.00 70 1009.8
20260506062419 47 360 0.0 0.0 0.00 0.03 0.00 76 1010.1
20260506061941 47 360 0.0 0.0 0.00 0.03 0.00 76 1010.2
20260506061420 47 360 0.0 0.0 0.00 0.03 0.00 76 1010.2
20260506060920 47 360 0.0 0.0 0.00 0.03 0.00 76 1010.0
20260506060421 48 360 0.0 0.0 0.00 0.03 0.00 76 1009.9
20260506050921 48 360 0.0 0.0 0.00 0.03 0.00 76 1010.3
20260506050421 48 360 0.0 0.0 0.00 0.03 0.00 77 1010.4
20260506044944 48 360 0.0 0.0 0.00 0.03 0.00 76 1010.3
20260506044443 48 360 0.0 0.0 0.00 0.03 0.00 76 1010.1
20260506043923 48 360 0.0 0.0 0.00 0.03 0.00 75 1010.2
20260506043423 48 360 0.0 0.0 0.00 0.03 0.00 74 1010.2
20260506042943 48 360 0.0 0.0 0.00 0.03 0.00 74 1010.1
20260506042441 48 360 0.0 0.0 0.00 0.03 0.00 73 1009.9
20260506041942 48 360 0.0 0.0 0.00 0.03 0.00 73 1009.9
20260506041421 48 360 0.0 0.0 0.00 0.03 0.00 73 1009.7
20260506040921 48 360 0.0 0.0 0.00 0.03 0.00 73 1009.8
20260506040442 48 360 0.0 0.0 0.00 0.07 0.03 73 1009.7
20260506035913 48 360 0.0 0.0 0.00 0.07 0.03 73 1009.6
20260506035414 48 360 0.0 0.0 0.00 0.07 0.03 73 1009.6
20260506034913 49 360 0.0 0.0 0.00 0.07 0.03 73 1009.5
20260506034412 49 360 0.0 0.0 0.00 0.07 0.03 72 1009.5
20260506033934 49 360 0.0 0.0 0.00 0.07 0.03 72 1009.7
20260506033415 49 360 0.0 0.0 0.00 0.07 0.03 71 1009.7
20260506032915 49 360 0.0 0.0 0.00 0.07 0.03 71 1009.9
20260506032416 49 360 0.0 0.0 0.00 0.07 0.03 70 1009.7
20260506031936 49 360 0.0 0.0 0.00 0.07 0.03 70 1009.8
20260506031420 49 360 0.0 0.0 0.00 0.07 0.03 69 1009.9
20260506030941 49 360 0.0 0.0 0.00 0.07 0.03 68 1009.9
20260506030437 49 360 0.0 0.0 0.00 0.12 0.03 68 1009.7
20260506025918 49 360 0.0 0.0 0.00 0.12 0.03 68 1009.7
20260506025420 49 360 0.0 0.0 0.00 0.12 0.03 68 1009.7
20260506024923 49 360 0.0 0.0 0.00 0.12 0.03 68 1009.8
20260506024423 50 360 0.0 0.0 0.00 0.12 0.03 68 1009.7
20260506023944 50 360 0.0 0.0 0.00 0.12 0.03 68 1009.7
20260506023424 50 360 0.0 0.0 0.00 0.12 0.03 68 1009.6
20260506022925 50 360 0.0 0.0 0.00 0.12 0.03 67 1009.5
20260506022447 50 360 0.0 0.0 0.00 0.12 0.03 68 1009.5
20260506021929 50 360 0.0 0.0 0.00 0.12 0.03 66 1009.5
20260506021411 50 360 0.0 0.0 0.00 0.12 0.03 66 1009.4
20260506020912 50 360 0.0 0.0 0.00 0.12 0.03 65 1009.4
20260506020413 50 360 0.0 0.0 0.00 0.21 0.03 62 1009.4
20260506015913 50 360 0.0 0.0 0.00 0.21 0.03 61 1009.4
20260506015415 50 360 0.0 0.0 0.00 0.21 0.03 61 1009.2